Regional Weather Roundup
Issued by NWS

Home | Current Version | Previous Version | Text Only | Print | Product List | Glossary On
Versions: 1 2 3 4 5 6 7 8 9 10 11 12 13 14 15 16 17 18 19 20 21 22 23 24 25 26 27 28 29 30 31 32 33 34 35 36 37 38 39 40 41 42 43 44 45 46 47 48 49 50
000
ASUS43 KLMK 260610
RWRKY
KENTUCKY REGIONAL WEATHER ROUNDUP
NATIONAL WEATHER SERVICE LOUISVILLE KY
200 AM EDT TUE MAY 26 2015

NOTE "FAIR" INDICATES FEW OR NO CLOUDS BELOW 12,000 FEET
WITH NO SIGNIFICANT WEATHER AND/OR OBSTRUCTIONS TO VISIBILITY.

KYZ001>023-026-027-061>063-070>075-260700-
WESTERN AND SOUTH CENTRAL KENTUCKY

CITY           SKY/WX    TMP DP  RH WIND       PRES   REMARKS
PADUCAH        MOCLDY    71  67  87 S10       29.99F
HENDERSON      PTCLDY    68  64  88 SE9       30.02F
OWENSBORO      CLOUDY    69  67  93 S12       30.06F
HOPKINSVILLE   MOCLDY    68  66  94 SE8       30.06F
BOWLING GREEN  PTCLDY    64  61  90 E3        30.11S
GLASGOW        PTCLDY    66  65  97 S3        30.13S
$$

KYZ024-025-028>034-038-045-046-053-260700-
NORTH CENTRAL KENTUCKY

CITY           SKY/WX    TMP DP  RH WIND       PRES   REMARKS
LOUISVILLE/SDF MOCLDY    68  64  87 SE6       30.10F
LOUISVILLE/LOU MOCLDY    68  64  87 CALM      30.11F
FORT KNOX      PTCLDY    66  63  92 S5        30.09F
$$

KYZ035>037-039>044-047>052-055>060-089>105-260700-
NORTHEAST KENTUCKY

CITY           SKY/WX    TMP DP  RH WIND       PRES   REMARKS
LEXINGTON      MOCLDY    65  63  93 S6        30.15S
COVINGTON      MOCLDY    67  63  87 S6        30.11F
FRANKFORT      CLEAR     67  63  87 S5        30.12F
$$

KYZ054-064>069-076>088-106>120-260700-
SOUTHEAST KENTUCKY

CITY           SKY/WX    TMP DP  RH WIND       PRES   REMARKS
JACKSON        CLOUDY    70  63  78 CALM      30.19S
LONDON         LGT RAIN  71  61  70 S3        30.18F
SOMERSET       MOCLDY    68  64  88 CALM      30.17F
MIDDLESBORO    CLOUDY    71  64  78 CALM      30.20S
MONTICELLO     CLOUDY    69  65  87 CALM      30.18F
$$



USA.gov is the U.S. government's official web portal to all federal, state and local government web resources and services.